OKVCL LKPR-LDRI

Flight info

Callsign OKVCL
Flight time 1h 38m
Altitude 31000
Route LKPR/30 N0280F310 VOZ4B VOZ DCT NELPA DCT PISAM DCT KOVEL DCT OSPEN DCT DIPSA DCT GIRDA GIRD1T LDRI/32
Aircraft SF50/L-V/N

Departure

Time 2026-05-08 15:38
Airport Václav Havel Airport Prague (LKPR)

Arrival

Time 2026-05-08 17:17
Airport Rijeka Airport (LDRI)
Time Latitude Longitude Altitude Speed Heading
2026-05-08 15:33 50.09844 14.28595 1204 ft 0 kts 168°
2026-05-08 15:34 50.09832 14.28599 1204 ft 6 kts 168°
2026-05-08 15:34 50.09803 14.28558 1204 ft 9 kts 259°
2026-05-08 15:34 50.09781 14.28449 1205 ft 11 kts 245°
2026-05-08 15:35 50.09760 14.28311 1205 ft 14 kts 258°
2026-05-08 15:35 50.09739 14.28157 1206 ft 15 kts 255°
2026-05-08 15:35 50.09717 14.28002 1206 ft 15 kts 257°
2026-05-08 15:35 50.09696 14.27837 1200 ft 17 kts 256°
2026-05-08 15:36 50.09636 14.27687 1201 ft 17 kts 216°
2026-05-08 15:36 50.09573 14.27616 1204 ft 17 kts 215°
2026-05-08 15:36 50.09474 14.27507 1209 ft 5 kts 213°
2026-05-08 15:36 50.09465 14.27497 1210 ft 0 kts 214°
2026-05-08 15:37 50.09430 14.27461 1212 ft 13 kts 218°
2026-05-08 15:37 50.09420 14.27395 1212 ft 0 kts 302°
2026-05-08 15:37 50.09526 14.27175 1208 ft 57 kts 307°
2026-05-08 15:37 50.09872 14.26457 1245 ft 104 kts 309°
2026-05-08 15:38 50.10363 14.25454 1409 ft 126 kts 314°
2026-05-08 15:38 50.10951 14.24321 1635 ft 138 kts 310°
2026-05-08 15:38 50.11491 14.23191 2363 ft 122 kts 303°
2026-05-08 15:38 50.11977 14.22128 2872 ft 126 kts 302°
2026-05-08 15:39 50.12512 14.20959 3382 ft 138 kts 303°
2026-05-08 15:39 50.13101 14.19735 3903 ft 145 kts 304°
2026-05-08 15:39 50.13725 14.18447 4426 ft 153 kts 303°
2026-05-08 15:39 50.14365 14.17114 4943 ft 159 kts 303°
2026-05-08 15:40 50.15043 14.15717 5453 ft 164 kts 303°
2026-05-08 15:40 50.15739 14.14271 5955 ft 170 kts 303°
2026-05-08 15:40 50.16459 14.12772 6488 ft 175 kts 303°
2026-05-08 15:40 50.17198 14.11236 6979 ft 178 kts 303°
2026-05-08 15:41 50.17862 14.09609 7474 ft 178 kts 290°
2026-05-08 15:41 50.18153 14.07748 7981 ft 177 kts 273°
2026-05-08 15:41 50.18062 14.05842 8484 ft 177 kts 256°
2026-05-08 15:41 50.17603 14.04100 8992 ft 176 kts 239°
2026-05-08 15:42 50.16810 14.02652 9515 ft 177 kts 221°
2026-05-08 15:42 50.15824 14.01521 10042 ft 175 kts 218°
2026-05-08 15:42 50.14858 14.00373 10524 ft 174 kts 218°
2026-05-08 15:42 50.13893 13.99244 11008 ft 172 kts 216°
2026-05-08 15:43 50.12805 13.98488 11466 ft 173 kts 196°
2026-05-08 15:43 50.11600 13.98306 11919 ft 176 kts 180°
2026-05-08 15:43 50.10398 13.98736 12381 ft 180 kts 162°
2026-05-08 15:43 50.09280 13.99545 12844 ft 179 kts 160°
2026-05-08 15:44 50.08146 14.00308 13314 ft 177 kts 161°
2026-05-08 15:44 50.07026 14.01083 13793 ft 175 kts 160°
2026-05-08 15:44 50.05919 14.01858 14235 ft 173 kts 160°
2026-05-08 15:44 50.04817 14.02625 14613 ft 174 kts 160°
2026-05-08 15:45 50.03715 14.03396 15003 ft 173 kts 160°
2026-05-08 15:45 50.02617 14.04162 15397 ft 173 kts 161°
2026-05-08 15:45 50.01520 14.04927 15797 ft 172 kts 161°
2026-05-08 15:45 50.00429 14.05686 16199 ft 171 kts 161°
2026-05-08 15:46 49.99364 14.06430 16592 ft 169 kts 161°
2026-05-08 15:46 49.98279 14.07185 17016 ft 168 kts 161°
2026-05-08 15:46 49.97234 14.07913 17420 ft 166 kts 161°
2026-05-08 15:46 49.96187 14.08644 17849 ft 164 kts 161°
2026-05-08 15:47 49.95161 14.09359 18268 ft 160 kts 161°
2026-05-08 15:47 49.94162 14.10057 18657 ft 155 kts 162°
2026-05-08 15:47 49.93191 14.10729 19030 ft 151 kts 162°
2026-05-08 15:47 49.92251 14.11381 19401 ft 145 kts 162°
2026-05-08 15:48 49.90494 14.12596 20146 ft 132 kts 163°
2026-05-08 15:48 49.89681 14.13163 20516 ft 123 kts 164°
2026-05-08 15:48 49.88923 14.13659 20845 ft 115 kts 168°
2026-05-08 15:49 49.88099 14.14214 20799 ft 142 kts 162°
2026-05-08 15:49 49.87130 14.14898 20793 ft 162 kts 162°
2026-05-08 15:49 49.86047 14.15685 20785 ft 183 kts 156°
2026-05-08 15:49 49.85051 14.17109 20777 ft 209 kts 133°
2026-05-08 15:50 49.84155 14.19010 20776 ft 228 kts 131°
2026-05-08 15:50 49.83166 14.21049 20775 ft 245 kts 132°
2026-05-08 15:50 49.82130 14.23163 20775 ft 259 kts 132°
2026-05-08 15:50 49.81031 14.25409 20777 ft 270 kts 131°
2026-05-08 15:51 49.79878 14.27774 20769 ft 280 kts 131°
2026-05-08 15:51 49.78692 14.30209 20773 ft 287 kts 131°
2026-05-08 15:51 49.77476 14.32697 20767 ft 293 kts 131°
2026-05-08 15:51 49.76238 14.35227 20771 ft 297 kts 131°
2026-05-08 15:52 49.75003 14.37745 21041 ft 291 kts 131°
2026-05-08 15:52 49.73792 14.40218 21293 ft 286 kts 131°
2026-05-08 15:52 49.72601 14.42640 21538 ft 283 kts 131°
2026-05-08 15:52 49.71405 14.45068 21748 ft 281 kts 132°
2026-05-08 15:53 49.70239 14.47435 21943 ft 280 kts 132°
2026-05-08 15:53 49.69060 14.49826 22165 ft 279 kts 132°
2026-05-08 15:53 49.67886 14.52201 22383 ft 278 kts 132°
2026-05-08 15:53 49.66721 14.54580 22594 ft 277 kts 130°
2026-05-08 15:54 49.65684 14.57094 22803 ft 277 kts 126°
2026-05-08 15:54 49.64669 14.59617 23022 ft 276 kts 127°
2026-05-08 15:54 49.63645 14.62116 23250 ft 275 kts 127°
2026-05-08 15:54 49.62619 14.64606 23472 ft 275 kts 127°
2026-05-08 15:55 49.61601 14.67097 23691 ft 274 kts 127°
2026-05-08 15:55 49.59589 14.72015 24060 ft 272 kts 127°
2026-05-08 15:55 49.58582 14.74481 24249 ft 271 kts 127°
2026-05-08 15:56 49.57571 14.76941 24390 ft 272 kts 128°
2026-05-08 15:56 49.56554 14.79405 24535 ft 273 kts 128°
2026-05-08 15:56 49.55539 14.81877 24693 ft 273 kts 128°
2026-05-08 15:56 49.54488 14.84290 24860 ft 268 kts 135°
2026-05-08 15:57 49.53163 14.86248 25023 ft 261 kts 148°
2026-05-08 15:57 49.51629 14.87677 25184 ft 255 kts 160°
2026-05-08 15:57 49.49970 14.88545 25351 ft 249 kts 172°
2026-05-08 15:57 49.48299 14.89064 25521 ft 248 kts 173°
2026-05-08 15:58 49.46615 14.89627 25695 ft 247 kts 173°
2026-05-08 15:58 49.44936 14.90185 25869 ft 246 kts 173°
2026-05-08 15:58 49.43262 14.90727 26041 ft 245 kts 173°
2026-05-08 15:58 49.41595 14.91267 26216 ft 244 kts 173°
2026-05-08 15:59 49.39934 14.91806 26396 ft 243 kts 173°
2026-05-08 15:59 49.38280 14.92343 26572 ft 242 kts 174°
2026-05-08 15:59 49.36632 14.92876 26755 ft 242 kts 174°
2026-05-08 15:59 49.34988 14.93409 26926 ft 241 kts 174°
2026-05-08 16:00 49.33376 14.93931 27108 ft 240 kts 174°
2026-05-08 16:00 49.31747 14.94458 27283 ft 239 kts 174°
2026-05-08 16:00 49.30126 14.94981 27475 ft 238 kts 174°
2026-05-08 16:00 49.28531 14.95683 27650 ft 241 kts 165°
2026-05-08 16:01 49.27030 14.96879 27831 ft 246 kts 155°
2026-05-08 16:01 49.25642 14.98442 28019 ft 247 kts 152°
2026-05-08 16:01 49.24259 14.99980 28208 ft 245 kts 153°
2026-05-08 16:01 49.22877 15.01505 28396 ft 245 kts 153°
2026-05-08 16:02 49.21522 15.03019 28598 ft 244 kts 152°
2026-05-08 16:02 49.20158 15.04545 28778 ft 243 kts 153°
2026-05-08 16:02 49.18796 15.06064 28972 ft 242 kts 153°
2026-05-08 16:02 49.17442 15.07571 29164 ft 240 kts 153°
2026-05-08 16:03 49.16147 15.09017 29354 ft 239 kts 153°
2026-05-08 16:03 49.14785 15.10533 29548 ft 239 kts 153°
2026-05-08 16:03 49.13446 15.12023 29749 ft 237 kts 153°
2026-05-08 16:03 49.12115 15.13503 29946 ft 236 kts 153°
2026-05-08 16:04 49.10788 15.14976 30138 ft 235 kts 153°
2026-05-08 16:04 49.09468 15.16443 30310 ft 235 kts 153°
2026-05-08 16:04 49.08167 15.17886 30472 ft 234 kts 153°
2026-05-08 16:04 49.06853 15.19344 30636 ft 233 kts 153°
2026-05-08 16:05 49.05545 15.20794 30803 ft 232 kts 153°
2026-05-08 16:05 49.04240 15.22240 30971 ft 232 kts 153°
2026-05-08 16:05 49.02933 15.23685 31084 ft 234 kts 153°
2026-05-08 16:05 49.01596 15.25156 31088 ft 240 kts 153°
2026-05-08 16:06 49.00227 15.26669 31097 ft 246 kts 153°
2026-05-08 16:06 48.98828 15.28217 31101 ft 251 kts 152°
2026-05-08 16:06 48.97422 15.29768 31102 ft 255 kts 152°
2026-05-08 16:06 48.95977 15.31362 31099 ft 259 kts 152°
2026-05-08 16:07 48.94511 15.32976 31099 ft 262 kts 152°
2026-05-08 16:07 48.93027 15.34610 31101 ft 265 kts 152°
2026-05-08 16:07 48.91528 15.36256 31100 ft 267 kts 152°
2026-05-08 16:07 48.90015 15.37919 31096 ft 270 kts 152°
2026-05-08 16:08 48.88489 15.39594 31097 ft 272 kts 152°
2026-05-08 16:08 48.86949 15.41286 31096 ft 274 kts 152°
2026-05-08 16:08 48.85399 15.42985 31093 ft 276 kts 152°
2026-05-08 16:08 48.83839 15.44696 31098 ft 276 kts 152°
2026-05-08 16:09 48.82308 15.46376 31096 ft 274 kts 152°
2026-05-08 16:09 48.81268 15.47514 31091 ft 273 kts 152°
2026-05-08 16:09 48.79225 15.49746 31090 ft 273 kts 152°
2026-05-08 16:09 48.77687 15.51425 31082 ft 273 kts 152°
2026-05-08 16:10 48.76151 15.53102 31079 ft 272 kts 152°
2026-05-08 16:10 48.74615 15.54779 31078 ft 272 kts 152°
2026-05-08 16:10 48.73079 15.56453 31076 ft 272 kts 152°
2026-05-08 16:10 48.71488 15.57934 31075 ft 265 kts 162°
2026-05-08 16:11 48.69808 15.58911 31076 ft 259 kts 171°
2026-05-08 16:11 48.68060 15.59430 31071 ft 254 kts 179°
2026-05-08 16:11 48.66310 15.59492 31074 ft 250 kts 187°
2026-05-08 16:11 48.64572 15.59371 31073 ft 251 kts 187°
2026-05-08 16:12 48.62828 15.59284 31074 ft 251 kts 186°
2026-05-08 16:12 48.61085 15.59188 31067 ft 250 kts 187°
2026-05-08 16:12 48.59347 15.59084 31069 ft 250 kts 187°
2026-05-08 16:12 48.57610 15.58981 31071 ft 250 kts 187°
2026-05-08 16:13 48.55873 15.58881 31066 ft 249 kts 187°
2026-05-08 16:13 48.54163 15.58781 31067 ft 249 kts 187°
2026-05-08 16:13 48.52428 15.58680 31064 ft 250 kts 187°
2026-05-08 16:13 48.50699 15.58580 31064 ft 249 kts 187°
2026-05-08 16:14 48.48965 15.58479 31064 ft 249 kts 187°
2026-05-08 16:14 48.47229 15.58379 31062 ft 250 kts 187°
2026-05-08 16:14 48.45493 15.58279 31062 ft 250 kts 187°
2026-05-08 16:14 48.43756 15.58177 31062 ft 250 kts 187°
2026-05-08 16:15 48.42023 15.58071 31061 ft 249 kts 187°
2026-05-08 16:15 48.40288 15.57971 31064 ft 250 kts 187°
2026-05-08 16:15 48.38576 15.57877 31060 ft 249 kts 187°
2026-05-08 16:15 48.36840 15.57777 31060 ft 250 kts 187°
2026-05-08 16:16 48.35104 15.57673 31055 ft 250 kts 187°
2026-05-08 16:16 48.33366 15.57571 31059 ft 250 kts 187°
2026-05-08 16:16 48.31629 15.57472 31060 ft 250 kts 187°
2026-05-08 16:16 48.29895 15.57371 31059 ft 250 kts 187°
2026-05-08 16:17 48.28149 15.57269 31060 ft 251 kts 187°
2026-05-08 16:17 48.26995 15.57202 31060 ft 251 kts 187°
2026-05-08 16:17 48.25253 15.57102 31060 ft 250 kts 187°
2026-05-08 16:17 48.22958 15.56970 31059 ft 249 kts 187°
2026-05-08 16:18 48.21229 15.56869 31056 ft 249 kts 187°
2026-05-08 16:18 48.19498 15.56769 31055 ft 249 kts 187°
2026-05-08 16:18 48.17771 15.56670 31053 ft 249 kts 187°
2026-05-08 16:18 48.16044 15.56570 31056 ft 249 kts 187°
2026-05-08 16:19 48.14898 15.56504 31057 ft 249 kts 187°
2026-05-08 16:19 48.13172 15.56406 31055 ft 249 kts 187°
2026-05-08 16:19 48.11443 15.56307 31053 ft 249 kts 187°
2026-05-08 16:19 48.09713 15.56208 31061 ft 249 kts 187°
2026-05-08 16:20 48.07421 15.56077 31052 ft 249 kts 186°
2026-05-08 16:20 48.05696 15.55983 31061 ft 247 kts 187°
2026-05-08 16:20 48.04535 15.55915 31064 ft 247 kts 187°
2026-05-08 16:20 48.02843 15.55811 31063 ft 246 kts 186°
2026-05-08 16:21 48.01133 15.55717 30955 ft 246 kts 189°
2026-05-08 16:21 47.99427 15.55623 31058 ft 246 kts 189°
2026-05-08 16:21 47.97709 15.55519 31067 ft 249 kts 189°
2026-05-08 16:21 47.95966 15.55418 31070 ft 252 kts 189°
2026-05-08 16:22 47.94202 15.55324 31073 ft 255 kts 188°
2026-05-08 16:22 47.92425 15.55228 31070 ft 256 kts 189°
2026-05-08 16:22 47.90635 15.55121 31072 ft 259 kts 189°
2026-05-08 16:22 47.88833 15.55018 31083 ft 260 kts 188°
2026-05-08 16:23 47.87029 15.54917 31075 ft 259 kts 188°
2026-05-08 16:23 47.85257 15.54818 31077 ft 258 kts 188°
2026-05-08 16:23 47.83463 15.54717 31076 ft 257 kts 189°
2026-05-08 16:23 47.81677 15.54613 31078 ft 257 kts 188°
2026-05-08 16:24 47.79890 15.54510 31074 ft 257 kts 189°
2026-05-08 16:24 47.78110 15.54410 31074 ft 257 kts 188°
2026-05-08 16:24 47.76317 15.54305 31073 ft 258 kts 188°
2026-05-08 16:24 47.74521 15.54204 31082 ft 258 kts 188°
2026-05-08 16:25 47.72727 15.54105 31081 ft 258 kts 188°
2026-05-08 16:25 47.70930 15.54004 31082 ft 258 kts 188°
2026-05-08 16:25 47.69157 15.53902 31080 ft 258 kts 188°
2026-05-08 16:25 47.67363 15.53800 31081 ft 258 kts 188°
2026-05-08 16:26 47.65564 15.53700 31080 ft 259 kts 188°
2026-05-08 16:26 47.63764 15.53594 31083 ft 258 kts 188°
2026-05-08 16:26 47.61966 15.53493 31081 ft 259 kts 188°
2026-05-08 16:26 47.60170 15.53395 31086 ft 258 kts 188°
2026-05-08 16:27 47.58373 15.53292 31080 ft 259 kts 188°
2026-05-08 16:27 47.56570 15.53192 31080 ft 259 kts 188°
2026-05-08 16:27 47.54768 15.53092 31079 ft 260 kts 188°
2026-05-08 16:27 47.52986 15.52991 31082 ft 260 kts 188°
2026-05-08 16:28 47.51178 15.52886 31071 ft 260 kts 188°
2026-05-08 16:28 47.49379 15.52696 31073 ft 257 kts 194°
2026-05-08 16:28 47.47656 15.52043 31076 ft 255 kts 203°
2026-05-08 16:28 47.46044 15.50990 31072 ft 253 kts 209°
2026-05-08 16:29 47.44459 15.49861 31077 ft 253 kts 208°
2026-05-08 16:29 47.42864 15.48762 31063 ft 252 kts 208°
2026-05-08 16:29 47.41301 15.47674 31073 ft 253 kts 208°
2026-05-08 16:29 47.39713 15.46553 31079 ft 254 kts 208°
2026-05-08 16:30 47.38110 15.45428 31075 ft 255 kts 208°
2026-05-08 16:30 47.36509 15.44306 31075 ft 255 kts 208°
2026-05-08 16:30 47.34907 15.43187 31076 ft 255 kts 208°
2026-05-08 16:30 47.33306 15.42064 31070 ft 255 kts 208°
2026-05-08 16:31 47.31703 15.40945 31068 ft 255 kts 208°
2026-05-08 16:31 47.30106 15.39832 31064 ft 255 kts 208°
2026-05-08 16:31 47.28502 15.38710 31064 ft 255 kts 208°
2026-05-08 16:31 47.26897 15.37589 31063 ft 255 kts 208°
2026-05-08 16:32 47.25316 15.36490 31063 ft 255 kts 208°
2026-05-08 16:32 47.23707 15.35370 31062 ft 256 kts 208°
2026-05-08 16:32 47.22107 15.34253 31064 ft 256 kts 208°
2026-05-08 16:32 47.20497 15.33132 31063 ft 256 kts 208°
2026-05-08 16:33 47.18889 15.32012 31060 ft 256 kts 208°
2026-05-08 16:33 47.17280 15.30893 31058 ft 256 kts 208°
2026-05-08 16:33 47.15664 15.29772 31060 ft 257 kts 208°
2026-05-08 16:33 47.14050 15.28652 31060 ft 257 kts 208°
2026-05-08 16:34 47.12454 15.27547 31061 ft 257 kts 208°
2026-05-08 16:34 47.10841 15.26427 31061 ft 257 kts 208°
2026-05-08 16:34 47.09227 15.25307 31061 ft 256 kts 208°
2026-05-08 16:34 47.07614 15.24193 31061 ft 256 kts 208°
2026-05-08 16:35 47.06000 15.23077 31061 ft 256 kts 208°
2026-05-08 16:35 47.04389 15.21962 31061 ft 256 kts 209°
2026-05-08 16:35 47.02778 15.20847 31060 ft 256 kts 208°
2026-05-08 16:35 47.01162 15.19734 31063 ft 256 kts 209°
2026-05-08 16:36 46.99575 15.18639 31058 ft 256 kts 209°
2026-05-08 16:36 46.97965 15.17530 31057 ft 255 kts 209°
2026-05-08 16:36 46.96356 15.16422 31053 ft 255 kts 209°
2026-05-08 16:36 46.94749 15.15316 31061 ft 256 kts 209°
2026-05-08 16:37 46.93138 15.14207 31058 ft 256 kts 209°
2026-05-08 16:37 46.91528 15.13101 31057 ft 255 kts 209°
2026-05-08 16:37 46.89918 15.11996 31061 ft 255 kts 209°
2026-05-08 16:37 46.88312 15.10892 31062 ft 255 kts 209°
2026-05-08 16:38 46.86706 15.09790 31058 ft 256 kts 209°
2026-05-08 16:38 46.85096 15.08689 31056 ft 255 kts 209°
2026-05-08 16:38 46.83490 15.07588 31056 ft 254 kts 210°
2026-05-08 16:38 46.81911 15.06508 31053 ft 254 kts 210°
2026-05-08 16:39 46.80312 15.05413 31053 ft 254 kts 210°
2026-05-08 16:39 46.78716 15.04323 31050 ft 253 kts 210°
2026-05-08 16:39 46.77124 15.03237 31056 ft 253 kts 210°
2026-05-08 16:39 46.75526 15.02144 31042 ft 253 kts 210°
2026-05-08 16:40 46.73933 15.01057 31047 ft 252 kts 210°
2026-05-08 16:40 46.72342 14.99971 31056 ft 253 kts 210°
2026-05-08 16:40 46.70750 14.98888 31054 ft 252 kts 210°
2026-05-08 16:40 46.69168 14.97810 31051 ft 252 kts 210°
2026-05-08 16:41 46.67603 14.96743 31045 ft 251 kts 210°
2026-05-08 16:41 46.66018 14.95666 31047 ft 251 kts 210°
2026-05-08 16:41 46.64435 14.94590 31043 ft 251 kts 210°
2026-05-08 16:42 46.61279 14.92445 31046 ft 250 kts 211°
2026-05-08 16:42 46.59715 14.91340 31041 ft 250 kts 212°
2026-05-08 16:42 46.58148 14.90222 31041 ft 251 kts 211°
2026-05-08 16:42 46.56578 14.89113 31041 ft 250 kts 212°
2026-05-08 16:43 46.55018 14.88005 31042 ft 249 kts 212°
2026-05-08 16:43 46.53480 14.86913 31042 ft 249 kts 212°
2026-05-08 16:43 46.51920 14.85807 31042 ft 250 kts 212°
2026-05-08 16:43 46.50358 14.84699 30899 ft 251 kts 212°
2026-05-08 16:44 46.48786 14.83588 30656 ft 251 kts 212°
2026-05-08 16:44 46.47219 14.82481 30413 ft 250 kts 212°
2026-05-08 16:44 46.45662 14.81378 30171 ft 249 kts 212°
2026-05-08 16:44 46.44108 14.80279 29902 ft 248 kts 212°
2026-05-08 16:45 46.42556 14.79184 29608 ft 248 kts 212°
2026-05-08 16:45 46.41019 14.78098 29334 ft 250 kts 212°
2026-05-08 16:45 46.39450 14.76987 29053 ft 252 kts 212°
2026-05-08 16:45 46.37871 14.75882 28781 ft 253 kts 212°
2026-05-08 16:46 46.36282 14.74766 28509 ft 254 kts 212°
2026-05-08 16:46 46.34690 14.73648 28237 ft 254 kts 211°
2026-05-08 16:46 46.33099 14.72522 27971 ft 255 kts 212°
2026-05-08 16:46 46.31495 14.71396 27702 ft 256 kts 211°
2026-05-08 16:47 46.29887 14.70272 27435 ft 257 kts 211°
2026-05-08 16:47 46.28275 14.69137 27176 ft 258 kts 211°
2026-05-08 16:47 46.26683 14.68016 26921 ft 259 kts 211°
2026-05-08 16:47 46.25059 14.66881 26658 ft 259 kts 211°
2026-05-08 16:48 46.23436 14.65745 26411 ft 260 kts 211°
2026-05-08 16:48 46.21806 14.64603 26159 ft 260 kts 211°
2026-05-08 16:48 46.20171 14.63457 25907 ft 262 kts 211°
2026-05-08 16:48 46.18532 14.62309 25661 ft 262 kts 211°
2026-05-08 16:49 46.16893 14.61163 25416 ft 263 kts 211°
2026-05-08 16:49 46.15242 14.60010 25114 ft 264 kts 211°
2026-05-08 16:49 46.13603 14.58870 24759 ft 265 kts 211°
2026-05-08 16:49 46.11939 14.57709 24407 ft 265 kts 211°
2026-05-08 16:50 46.10277 14.56549 24061 ft 266 kts 210°
2026-05-08 16:50 46.08611 14.55389 23707 ft 266 kts 210°
2026-05-08 16:50 46.06942 14.54225 23316 ft 267 kts 210°
2026-05-08 16:50 46.05265 14.53055 22908 ft 268 kts 210°
2026-05-08 16:51 46.03578 14.51884 22493 ft 270 kts 210°
2026-05-08 16:51 46.01881 14.50705 22095 ft 272 kts 210°
2026-05-08 16:51 46.00170 14.49521 21695 ft 274 kts 210°
2026-05-08 16:51 45.98446 14.48326 21310 ft 276 kts 210°
2026-05-08 16:52 45.96735 14.47139 20927 ft 278 kts 210°
2026-05-08 16:52 45.94987 14.45927 20545 ft 280 kts 210°
2026-05-08 16:52 45.93247 14.44725 20177 ft 278 kts 210°
2026-05-08 16:52 45.91505 14.43520 19775 ft 278 kts 210°
2026-05-08 16:53 45.88005 14.41102 18809 ft 279 kts 209°
2026-05-08 16:53 45.86256 14.39897 18336 ft 279 kts 210°
2026-05-08 16:53 45.84506 14.38686 17804 ft 280 kts 209°
2026-05-08 16:54 45.82752 14.37478 17272 ft 280 kts 209°
2026-05-08 16:54 45.81020 14.36286 16624 ft 279 kts 209°
2026-05-08 16:54 45.79279 14.35086 15988 ft 278 kts 209°
2026-05-08 16:54 45.77540 14.33889 15361 ft 276 kts 209°
2026-05-08 16:55 45.75813 14.32705 14747 ft 274 kts 208°
2026-05-08 16:55 45.74095 14.31527 14145 ft 273 kts 208°
2026-05-08 16:55 45.72384 14.30347 13510 ft 272 kts 208°
2026-05-08 16:55 45.70678 14.29176 12859 ft 272 kts 208°
2026-05-08 16:56 45.68970 14.28008 12213 ft 272 kts 208°
2026-05-08 16:56 45.67263 14.26845 11584 ft 272 kts 208°
2026-05-08 16:56 45.65567 14.25681 11084 ft 268 kts 208°
2026-05-08 16:56 45.63896 14.24535 10596 ft 266 kts 208°
2026-05-08 16:57 45.62260 14.23416 10123 ft 263 kts 208°
2026-05-08 16:57 45.60624 14.22304 10034 ft 259 kts 208°
2026-05-08 16:57 45.59001 14.21196 10031 ft 258 kts 208°
2026-05-08 16:57 45.57382 14.20090 10028 ft 258 kts 208°
2026-05-08 16:58 45.55763 14.18985 10026 ft 257 kts 208°
2026-05-08 16:58 45.54151 14.17883 10025 ft 257 kts 208°
2026-05-08 16:58 45.52536 14.16785 10027 ft 257 kts 208°
2026-05-08 16:58 45.50917 14.15694 10029 ft 258 kts 206°
2026-05-08 16:59 45.49201 14.15026 10018 ft 262 kts 191°
2026-05-08 16:59 45.47373 14.14973 10017 ft 266 kts 178°
2026-05-08 16:59 45.45561 14.15569 10016 ft 271 kts 163°
2026-05-08 16:59 45.43878 14.16815 10020 ft 274 kts 150°
2026-05-08 17:00 45.42290 14.18321 10021 ft 275 kts 150°
2026-05-08 17:00 45.40686 14.19803 10020 ft 275 kts 150°
2026-05-08 17:00 45.39058 14.21305 9779 ft 283 kts 150°
2026-05-08 17:00 45.37397 14.22850 9510 ft 287 kts 150°
2026-05-08 17:01 45.35744 14.24394 9249 ft 283 kts 150°
2026-05-08 17:01 45.34125 14.25901 8989 ft 280 kts 150°
2026-05-08 17:01 45.32503 14.27400 8727 ft 278 kts 150°
2026-05-08 17:01 45.30886 14.28892 8472 ft 276 kts 150°
2026-05-08 17:02 45.29287 14.30377 8215 ft 274 kts 150°
2026-05-08 17:02 45.27692 14.31855 8004 ft 272 kts 150°
2026-05-08 17:02 45.26136 14.33300 7999 ft 264 kts 150°
2026-05-08 17:02 45.24612 14.34708 7994 ft 259 kts 150°
2026-05-08 17:03 45.23113 14.36090 7993 ft 256 kts 150°
2026-05-08 17:03 45.21628 14.37456 7989 ft 254 kts 150°
2026-05-08 17:03 45.20153 14.38819 7990 ft 252 kts 150°
2026-05-08 17:03 45.18683 14.40173 7990 ft 251 kts 150°
2026-05-08 17:04 45.17242 14.41506 7986 ft 251 kts 150°
2026-05-08 17:04 45.15780 14.42851 7991 ft 250 kts 150°
2026-05-08 17:04 45.14332 14.44221 7990 ft 250 kts 147°
2026-05-08 17:04 45.12933 14.45695 7692 ft 252 kts 146°
2026-05-08 17:05 45.11543 14.47145 7197 ft 243 kts 147°
2026-05-08 17:05 45.10197 14.48540 6751 ft 236 kts 147°
2026-05-08 17:05 45.08920 14.49871 6506 ft 221 kts 146°
2026-05-08 17:05 45.07712 14.51126 6253 ft 210 kts 147°
2026-05-08 17:06 45.06567 14.52305 6007 ft 202 kts 146°
2026-05-08 17:06 45.05457 14.53464 5993 ft 199 kts 147°
2026-05-08 17:06 45.04328 14.54630 5990 ft 202 kts 147°
2026-05-08 17:06 45.03187 14.55814 5994 ft 205 kts 146°
2026-05-08 17:07 45.02030 14.57013 5999 ft 208 kts 146°
2026-05-08 17:07 45.00857 14.58227 5998 ft 210 kts 146°
2026-05-08 17:07 44.99669 14.59455 5997 ft 213 kts 146°
2026-05-08 17:07 44.98468 14.60697 5997 ft 215 kts 146°
2026-05-08 17:08 44.97243 14.61964 5756 ft 228 kts 146°
2026-05-08 17:08 44.96012 14.63510 5279 ft 248 kts 130°
2026-05-08 17:08 44.95174 14.65670 4818 ft 259 kts 111°
2026-05-08 17:08 44.94904 14.68143 4605 ft 250 kts 91°
2026-05-08 17:09 44.95200 14.70523 4597 ft 245 kts 72°
2026-05-08 17:09 44.96009 14.72603 4600 ft 239 kts 54°
2026-05-08 17:09 44.96997 14.74445 4604 ft 231 kts 52°
2026-05-08 17:09 44.98170 14.75944 4597 ft 227 kts 32°
2026-05-08 17:10 44.99631 14.76844 4189 ft 234 kts 13°
2026-05-08 17:10 45.01269 14.77006 3675 ft 240 kts 353°
2026-05-08 17:10 45.02855 14.76405 3190 ft 241 kts 334°
2026-05-08 17:10 45.04208 14.75151 3007 ft 218 kts 320°
2026-05-08 17:11 45.05342 14.73971 3003 ft 183 kts 322°
2026-05-08 17:11 45.06273 14.73030 2992 ft 151 kts 321°
2026-05-08 17:11 45.07072 14.72213 2992 ft 134 kts 321°
2026-05-08 17:11 45.07792 14.71468 2998 ft 123 kts 320°
2026-05-08 17:12 45.08466 14.70686 2851 ft 128 kts 318°
2026-05-08 17:12 45.09144 14.69870 2768 ft 127 kts 316°
2026-05-08 17:12 45.09776 14.69015 2700 ft 124 kts 317°
2026-05-08 17:12 45.10496 14.68328 2601 ft 127 kts 325°
2026-05-08 17:13 45.11217 14.67645 2527 ft 125 kts 323°
2026-05-08 17:13 45.11948 14.66958 2403 ft 127 kts 324°
2026-05-08 17:13 45.12708 14.66214 2283 ft 137 kts 323°
2026-05-08 17:13 45.13523 14.65462 2128 ft 141 kts 325°
2026-05-08 17:14 45.14306 14.64673 2068 ft 137 kts 323°
2026-05-08 17:14 45.15020 14.63964 2051 ft 112 kts 323°
2026-05-08 17:14 45.15630 14.63329 1849 ft 112 kts 322°
2026-05-08 17:14 45.16283 14.62663 1490 ft 117 kts 323°
2026-05-08 17:15 45.16915 14.62011 1228 ft 109 kts 323°
2026-05-08 17:15 45.17501 14.61373 1072 ft 106 kts 323°
2026-05-08 17:15 45.18092 14.60765 971 ft 104 kts 324°
2026-05-08 17:15 45.18687 14.60156 836 ft 105 kts 326°
2026-05-08 17:16 45.19283 14.59550 739 ft 106 kts 324°
2026-05-08 17:16 45.19888 14.58939 594 ft 106 kts 327°
2026-05-08 17:16 45.20473 14.58337 423 ft 102 kts 323°
2026-05-08 17:16 45.20993 14.57782 269 ft 81 kts 325°
2026-05-08 17:17 45.21373 14.57387 258 ft 57 kts 323°
2026-05-08 17:17 45.21565 14.57204 260 ft 12 kts 356°
2026-05-08 17:17 45.21610 14.57199 259 ft 6 kts
2026-05-08 17:17 45.21672 14.57202 260 ft 11 kts
2026-05-08 17:18 45.21760 14.57206 262 ft 10 kts 358°
2026-05-08 17:18 45.21807 14.57185 262 ft 6 kts 323°
2026-05-08 17:18 45.21838 14.57143 262 ft 4 kts 252°
2026-05-08 17:18 45.21817 14.57117 262 ft 5 kts 111°
2026-05-08 17:19 45.21818 14.57124 262 ft 0 kts 62°